Location: *
(55.5817°S, 142.4781°W)
Time: 06:58:40
(UTC+00:00)

Cosmos 2227 - Pass Details

Date: 29 April 2025
Orbit: 834 x 859 km, 71.0° (Epoch: 23 May)

Event Time Altitude Azimuth Distance (km) Brightness Sun altitude
Exits shadow 15:22:10 - 217° (SW) 2,906 6.6 -12.8°
Reaches altitude 10° 15:23:11 10° 218° (SW) 2,526 6.3 -12.6°
Maximum altitude 15:28:56 64° 297° (WNW) 963 4.3 -11.8°
Drops below altitude 10° 15:34:38 10° 17° (NNE) 2,509 7.0 -11.0°
Sets 15:37:06 0° 20° (NNE) 3,439 7.8 -10.7°
